This demonstration page uses our WeatherBlox Daily Observations layout. Learn more.

Left ArrowRight Arrow

Hourly Observations for July 10, 2021

Temp ( °F °C ) Dew Point ( °F °C ) Humidity (%) Winds ( mph kmh ) Pressure ( in mb ) Visibility ( mi km ) Precip ( " mm )
12:15 am 00:15 Clear 68 20 60 15.8 77 77 E 6 9 29.75 1007 10 16 0.00 0.00
12:35 am 00:35 Clear 67 19.3 62 16.4 83 83 ESE 6 9 29.78 1009 10 16 0.00 0.00
12:55 am 00:55 Clear 66 19 62 16.6 86 86 NNE 12 19 29.81 1009 10 16 0.00 0.00
1:15 am 01:15 Clear 65 18.3 62 16.8 91 91 Calm 29.81 1010 10 16 0.00 0.00
1:35 am 01:35 Clear 65 18.3 63 17 92 92 S 6 9 29.82 1010 10 16 0.00 0.00
1:55 am 01:55 Clear 65 18.4 63 17.3 93 93 W 6 9 29.92 1013 10 16 0.00 0.00
2:15 am 02:15 Partly Cloudy with Light Rain 65 18.5 63 17.4 93 93 WNW 7 11 29.93 1014 10 16 0.00 0.00
2:35 am 02:35 Mostly Cloudy with Rain 65 18.5 63 17.4 93 93 NW 9 15 29.97 1015 10 16 0.01 0.25
2:55 am 02:55 Cloudy with Thunderstorms 69 20.3 67 19.2 93 93 N 26 43 29.98 1015 7 11 0.05 1.27
3:15 am 03:15 Mostly Cloudy 67 19.5 63 17.4 88 88 N 25 41 29.93 1014 10 16 0.00 0.00
3:35 am 03:35 Mostly Cloudy with Light Rain 66 19 63 17 88 88 N 24 39 29.95 1014 10 16 0.01 0.25
3:55 am 03:55 Windy with Storms Likely 66 19 64 17.5 91 91 N 24 39 29.95 1014 10 16 0.01 0.25
4:15 am 04:15 Clear 66 19.1 64 17.6 91 91 N 29 46 29.91 1013 10 16 0.00 0.00
4:35 am 04:35 Partly Cloudy 66 19.1 64 17.5 91 91 NNE 26 43 29.88 1012 10 16 0.00 0.00
4:55 am 04:55 Mostly Cloudy 67 19.3 62 16.8 86 86 NE 23 37 29.85 1011 10 16 0.00 0.00
5:15 am 05:15 Mostly Cloudy with Light Rain 66 19.1 62 16.5 85 85 NE 16 26 29.86 1011 10 16 0.00 0.00
5:35 am 05:35 Partly Cloudy 66 19 61 16.3 84 84 ENE 14 22 29.86 1011 10 16 0.00 0.00
5:55 am 05:55 Mostly Cloudy with Light Rain 66 18.9 62 16.4 86 86 NNE 7 11 29.87 1011 10 16 0.00 0.00
6:15 am 06:15 Mostly Cloudy 67 19.3 61 16 81 81 Calm 29.85 1011 10 16 0.00 0.00
6:35 am 06:35 Mostly Cloudy 68 20 60 15.6 76 76 W 5 7 29.86 1011 10 16 0.01 0.25
6:55 am 06:55 Mostly Cloudy 67 19.5 61 16.3 82 82 Calm 29.87 1012 10 16 0.01 0.25
7:15 am 07:15 Partly Cloudy 66 19 62 16.5 86 86 N 16 26 29.95 1014 10 16 0.00 0.00
7:35 am 07:35 Sunny 67 19.5 61 16 80 80 NW 7 11 29.94 1014 10 16 0.00 0.00
7:55 am 07:55 Sunny 67 19.5 62 16.5 83 83 WNW 7 11 29.96 1015 10 16 0.00 0.00
8:15 am 08:15 Partly Cloudy 68 20 62 16.6 81 81 Calm 29.92 1013 10 16 0.00 0.00
8:35 am 08:35 Sunny 68 20 63 17.2 84 84 W 9 15 29.97 1015 10 16 0.00 0.00
8:55 am 08:55 Sunny 68 20 62 16.9 82 82 W 9 15 29.96 1014 10 16 0.00 0.00
9:15 am 09:15 Sunny 69 20.7 63 17.3 81 81 W 6 9 29.95 1014 10 16 0.00 0.00
9:35 am 09:35 Sunny 71 21.6 64 17.9 80 80 NW 8 13 29.94 1014 10 16 0.00 0.00
9:55 am 09:55 Partly Cloudy 73 22.5 65 18.2 77 77 NW 7 11 29.95 1014 10 16 0.00 0.00
10:15 am 10:15 Partly Cloudy 74 23.1 65 18.4 75 75 NNW 9 15 29.94 1014 10 16 0.00 0.00
10:35 am 10:35 Partly Cloudy 74 23.5 66 19 76 76 NNW 7 11 29.93 1013 10 16 0.00 0.00
10:55 am 10:55 Mostly Cloudy 75 24 67 19.2 75 75 NNW 10 17 29.92 1013 10 16 0.00 0.00
11:15 am 11:15 Mostly Cloudy 77 24.8 67 19.3 72 72 NNW 9 15 29.92 1013 10 16 0.00 0.00
11:35 am 11:35 Mostly Cloudy 77 25 65 18.6 68 68 NW 12 19 29.92 1013 10 16 0.00 0.00
11:55 am 11:55 Mostly Cloudy 77 25.1 64 17.9 64 64 NNW 13 20 29.92 1013 10 16 0.00 0.00
12:15 pm 12:15 Mostly Cloudy 78 25.5 64 17.9 63 63 NNW 15 24 29.91 1013 10 16 0.00 0.00
12:35 pm 12:35 Partly Cloudy 78 25.8 64 17.9 62 62 NNW 16 26 29.90 1013 10 16 0.00 0.00
12:55 pm 12:55 Partly Cloudy 79 25.9 64 17.5 60 60 NW 13 20 29.90 1013 10 16 0.00 0.00
1:15 pm 13:15 Partly Cloudy 79 26.2 64 17.6 59 59 NW 16 26 29.89 1012 10 16 0.00 0.00
1:35 pm 13:35 Partly Cloudy 80 26.4 63 17.1 57 57 NW 15 24 29.89 1012 10 16 0.00 0.00
1:55 pm 13:55 Mostly Cloudy 79 25.9 63 17.1 58 58 NNW 13 20 29.90 1013 10 16 0.00 0.00
2:15 pm 14:15 Mostly Cloudy 80 26.4 62 16.7 55 55 NNW 13 20 29.89 1012 10 16 0.00 0.00
2:35 pm 14:35 Mostly Cloudy 80 26.5 62 16.9 56 56 NNW 15 24 29.88 1012 10 16 0.00 0.00
2:55 pm 14:55 Sunny 81 27 63 17.1 55 55 NNW 13 20 29.88 1012 10 16 0.00 0.00
3:15 pm 15:15 Mostly Cloudy 71 21.6 62 16.7 74 74 NNW 14 22 29.94 1014 7 11 0.03 0.76
3:35 pm 15:35 Mostly Cloudy 68 20 65 18.1 89 89 NW 6 9 29.96 1014 10 16 0.07 1.78
3:55 pm 15:55 Sunny 71 21.7 67 19.2 86 86 N 14 22 29.94 1014 10 16 0.07 1.78
4:15 pm 16:15 Sunny 75 23.9 65 18.4 71 71 N 12 19 29.93 1013 10 16 0.00 0.00
4:35 pm 16:35 Sunny 76 24.6 65 18.6 69 69 N 14 22 29.92 1013 10 16 0.00 0.00
4:55 pm 16:55 Partly Cloudy 78 25.3 64 17.7 63 63 NNW 14 22 29.91 1013 10 16 0.00 0.00
5:15 pm 17:15 Partly Cloudy 77 25 63 17.4 63 63 N 13 20 29.92 1013 10 16 0.00 0.00
5:35 pm 17:35 Partly Cloudy 76 24.5 64 17.5 65 65 N 12 19 29.92 1013 10 16 0.00 0.00
5:55 pm 17:55 Partly Cloudy 77 24.9 63 17.2 62 62 N 15 24 29.92 1013 10 16 0.00 0.00
6:15 pm 18:15 Sunny 77 24.8 62 16.7 61 61 N 12 19 29.92 1013 10 16 0.00 0.00
6:35 pm 18:35 Partly Cloudy 77 24.8 64 17.7 65 65 N 12 19 29.92 1013 10 16 0.00 0.00
6:55 pm 18:55 Partly Cloudy 76 24.5 62 16.5 61 61 N 13 20 29.92 1013 10 16 0.00 0.00
7:15 pm 19:15 Partly Cloudy 76 24.3 61 16.2 61 61 N 13 20 29.92 1013 10 16 0.00 0.00
7:35 pm 19:35 Sunny 75 23.9 62 16.8 65 65 NNE 12 19 29.93 1013 10 16 0.00 0.00
7:55 pm 19:55 Sunny 74 23.3 63 17.4 70 70 N 8 13 29.93 1014 10 16 0.00 0.00
8:15 pm 20:15 Sunny 73 22.6 64 17.5 73 73 N 8 13 29.94 1014 10 16 0.00 0.00
8:35 pm 20:35 Partly Cloudy 72 22 63 17.1 74 74 N 8 13 29.94 1014 10 16 0.00 0.00
8:55 pm 20:55 Mostly Cloudy 71 21.7 63 17.1 75 75 N 7 11 29.94 1014 10 16 0.00 0.00
9:15 pm 21:15 Partly Cloudy 69 20.7 63 17.1 80 80 N 6 9 29.96 1015 10 16 0.00 0.00
9:35 pm 21:35 Clear 68 20.2 63 17.1 82 82 N 8 13 29.97 1015 10 16 0.00 0.00
9:55 pm 21:55 Clear 68 20 61 16.2 79 79 N 10 17 29.99 1015 10 16 0.00 0.00
10:15 pm 22:15 Clear 67 19.3 61 16.3 83 83 N 9 15 29.99 1016 10 16 0.00 0.00
10:35 pm 22:35 Clear 66 19 61 16 83 83 N 9 15 30.01 1016 10 16 0.00 0.00
10:55 pm 22:55 Clear 65 18.3 60 15.8 85 85 N 8 13 30.02 1017 10 16 0.00 0.00

Powered by AerisWeather